Hourly Data Report for October 17, 2017

All times are specified in Local Standard Time (LST). Add 1 hour to adjust for Daylight Saving Time where and when it is observed.

KITCHENER/WATERLOO
ONTARIO

43°27'39.000" N
80°22'43.000" W
321.60 m
6144239
71368
YKF

Download Data

Hourly Data (October 2017)
Hourly Data Report for October 17, 2017
Temp Definition
°C
Dew Point Temp Definition
°C
Rel Hum Definition
%
Wind Dir Definition
10's deg

Wind Spd Definition
km/h
Visibility Definition
km
Stn Press Definition
kPa
Hmdx Definition


Wind Chill Definition


Weather Definition


TIME
00:00 Legend Double Dagger 0.7 0.0 95 13 5 16.1 98.54     LegendNANA
01:00 Legend Double Dagger 1.1 -0.2 91 17 4 16.1 98.57     LegendNANA
02:00 Legend Double Dagger 0.8 -0.1 93 17 4 16.1 98.56     LegendNANA
03:00 Legend Double Dagger 2.5 -1.0 78 18 9 16.1 98.51     LegendNANA
04:00 Legend Double Dagger 2.3 -1.0 79 19 9 16.1 98.50     LegendNANA
05:00 Legend Double Dagger 1.9 -0.7 83 18 8 16.1 98.51     LegendNANA
06:00 Legend Double Dagger 2.9 0.8 86 21 9 16.1 98.46     LegendNANA
07:00 Legend Double Dagger 6.6 4.0 83 23 21 16.1 98.45     LegendNANA
08:00 Legend Double Dagger 7.7 4.8 82 21 18 16.1 98.43     LegendNANA
09:00 Legend Double Dagger 11.2 6.0 70 22 24 16.1 98.38     LegendNANA
10:00 Legend Double Dagger 13.9 5.8 58 23 24 16.1 98.34     LegendNANA
11:00 Legend Double Dagger 15.3 4.6 49 24 35 16.1 98.30     LegendNANA
12:00 Legend Double Dagger 16.4 3.8 43 24 35 16.1 98.21     LegendNANA
13:00 Legend Double Dagger 17.7 3.7 39 23 34 16.1 98.13     LegendNANA
14:00 Legend Double Dagger 18.7 4.2 38 22 34 16.1 98.03     LegendNANA
15:00 Legend Double Dagger 18.5 4.2 39 20 37 16.1 97.96     LegendNANA
16:00 Legend Double Dagger 17.2 7.5 53 22 34 16.1 98.03     LegendNANA
17:00 Legend Double Dagger 15.2 8.0 62 21 22 16.1 98.02     LegendNANA
18:00 Legend Double Dagger 14.1 8.0 67 21 17 16.1 98.08     LegendNANA
19:00 Legend Double Dagger 13.2 8.1 71 21 17 16.1 98.12     LegendNANA
20:00 Legend Double Dagger 13.2 7.0 66 22 22 16.1 98.18     LegendNANA
21:00 Legend Double Dagger 12.8 6.7 66 23 22 16.1 98.25     LegendNANA
22:00 Legend Double Dagger 12.3 6.3 67 24 22 16.1 98.29     LegendNANA
23:00 Legend Double Dagger 10.6 6.2 74 24 11 16.1 98.32     LegendNANA

Notes on Data Quality.

Legend

  • E = Estimated
  • M = Missing
  • NA = Not Available
  • ‡ = Partner data that is not subject to review by the National Climate Archives
Date modified: